Location: Unspecified
(17.6330°N, 0.0000°E)
Time: 07:16:56
(UTC+00:00)

S-56A Canister/Altair - Pass Details

Date: 29 June 2019
Orbit: 632 x 2500 km, 38.9° (Epoch: 19 July)

Event Time Altitude Azimuth Distance (km) Brightness Sun altitude
Rises 20:07:14 0° 308° (NW) 3,753 12.7 -19.3°
Reaches altitude 10° 20:10:16 10° 310° (NW) 2,561 11.4 -19.9°
Maximum altitude 20:15:58 74° 36° (NE) 743 7.3 -21.0°
Enters shadow 20:17:08 51° 105° (ESE) 869 7.4 -21.3°
Drops below altitude 10° 20:20:27 10° 121° (ESE) 2,026 - -21.9°
Sets 20:22:37 0° 123° (ESE) 2,905 - -22.3°
